Regional Weather Roundup
Issued by NWS

Home | Current Version | Previous Version | Graphics & Text | Print | Product List | Glossary On
Versions: 1 2 3 4 5 6 7 8 9 10 11 12 13 14 15 16 17 18 19 20 21 22 23 24 25 26 27 28 29 30 31 32 33 34 35 36 37 38 39 40 41 42 43 44 45 46 47 48 49 50
000
ASUS44 KMEG 052200
RWRTN
TENNESSEE HOURLY STATE WEATHER ROUNDUP
NATIONAL WEATHER SERVICE MEMPHIS TN
400 PM CST MON DEC 05 2016

TNZ002-004-019-021-049-052-054-088>092-052300-
WEST TENNESSEE

CITY           SKY/WX    TMP DP  RH WIND       PRES   REMARKS
MEMPHIS INTL   CLOUDY    47  43  86 VRB5      29.83F
NWS MEMPHIS      N/A    N/A N/A N/A MISG        N/A
JACKSON        CLOUDY    46  44  93 E7        29.84F
DYERSBURG      CLOUDY   N/A N/A N/A E10       29.85F
UNION CITY     MOCLDY    41  37  87 E6        29.89S
PARIS          CLOUDY    39  37  93 NE9       29.90F WCI  33
LEXINGTON      CLOUDY    45  43  93 NE5       29.86F
$$

TNZ008-025-027-028-033-062-065-066-052300-
NORTH MIDDLE TENNESSEE

CITY           SKY/WX    TMP DP  RH WIND       PRES   REMARKS
NASHVILLE      CLOUDY    47  42  83 NE10      29.92F
CLARKSVILLE    CLOUDY    43  38  82 E9        29.94F
SMYRNA         CLOUDY    47  44  90 N7        29.92F
CROSSVILLE     CLOUDY    46  45  96 E6        29.91F
$$

TNZ061-075-076-078-094-096-097-052300-
SOUTH MIDDLE TENNESSEE

CITY           SKY/WX    TMP DP  RH WIND       PRES   REMARKS
TULLAHOMA      CLOUDY    46  46 100 E5        29.87F
WINCHESTER     MOCLDY    48  48 100 E3        29.87F
SHELBYVILLE    CLOUDY    50  48  93 NE5       29.88F
$$

TNZ017-018-042-046-047-052300-
NORTHEAST TENNESSEE

CITY           SKY/WX    TMP DP  RH WIND       PRES   REMARKS
TRI CITIES     CLOUDY    51  41  68 CALM      29.97F
$$

TNZ012-013-036-069-073-074-052300-
CENTRAL EAST TENNESSEE

CITY           SKY/WX    TMP DP  RH WIND       PRES   REMARKS
KNOXVILLE      LGT RAIN  51  47  86 N7        29.92F
OAK RIDGE      LGT RAIN  51  45  79 CALM      29.96F
GATLINBURG     PTCLDY    48  48 100 NE3       29.94F
$$

TNZ083-085-099-052300-
SOUTHEAST TENNESSEE

CITY           SKY/WX    TMP DP  RH WIND       PRES   REMARKS
CHATTANOOGA    CLOUDY    51  48  89 N6        29.93R FOG
$$

SKY/WX REPORTED AS FAIR MEANS FEW OR NO CLOUDS BELOW
12 THOUSAND FEET.




USA.gov is the U.S. government's official web portal to all federal, state and local government web resources and services.